Retour au catalogue

USA 476

ActifMilitaireVLEO
NORAD 62545·PAYLOAD·🇺🇸 United States

Lancé Jan 10, 2025 depuis Vandenberg Space Force Base

Loading…

Prochains Passages (prochaines 24 heures)

TLE

PériméSource: Mike McCants

Époque: Aug 20, 2026, 21:03 UTC

1 62545U 25005P   26232.87762011 0.00000000  00000-0  00000-0 0    04
2 62545  70.0215 254.6360 0003000 171.0169 188.9830 14.96713464    05

Suivez USA 476 en temps réel avec AllMySat

Download on the App Store